DW9768 Weather Reports


Display with metric or nautical units.
time (UTC)temp
F
wind
direction
speed
MPH
gust
MPH
rain 1hr
in
rain 24hr
in
rain mn
in
humidity
%
barometer
mb
20260906054523 55 283 2.0 3.0 0.00 0.30 0.01 81 1019.0
20260906053022 55 307 3.0 5.0 0.00 0.30 0.01 80 1019.0
20260906051523 55 304 3.0 5.0 0.00 0.30 0.01 80 1019.0
20260906050020 55 302 2.0 7.0 0.01 0.30 0.01 81 1018.8
20260906044521 54 294 2.0 6.0 0.01 0.30 0.01 82 1018.6
20260906043019 54 311 5.0 11.0 0.01 0.30 0.01 84 1018.7
20260906041523 54 296 2.0 10.0 0.01 0.30 0.01 84 1018.6
20260906040017 55 311 8.0 16.0 0.00 0.28 0.00 84 1018.6
20260906034612 56 278 5.0 8.0 0.00 0.30 0.00 81 1018.6
20260906033011 55 311 2.0 8.0 0.00 0.30 0.00 82 1018.5
20260906031510 55 265 2.0 6.0 0.00 0.30 0.00 83 1018.4
20260906030010 55 326 2.0 8.0 0.00 0.30 0.00 83 1018.4
20260906024508 55 256 3.0 10.0 0.00 0.30 0.00 82 1018.4
20260906023017 55 307 5.0 10.0 0.00 0.30 0.00 81 1018.3
20260906021506 56 325 4.0 11.0 0.00 0.30 0.00 84 1018.2
20260906020004 55 295 7.0 13.0 0.00 0.30 0.00 84 1018.1
20260906014502 55 285 5.0 10.0 0.00 0.30 0.00 85 1018.1
20260906013100 55 287 8.0 15.0 0.00 0.30 0.00 85 1017.9
20260906011559 56 290 6.0 12.0 0.00 0.30 0.00 82 1017.8
20260906010057 55 277 6.0 10.0 0.00 0.30 0.00 82 1017.7
20260906004556 55 300 3.0 10.0 0.00 0.34 0.00 82 1017.6
20260906003053 56 327 4.0 15.0 0.00 0.34 0.00 82 1017.6
20260906001553 56 302 5.0 11.0 0.00 0.34 0.00 82 1017.4
20260906000052 56 311 4.0 12.0 0.00 0.34 0.00 82 1017.4
20260905234602 56 297 8.0 14.0 0.00 0.44 0.00 82 1017.3
20260905233045 56 267 8.0 12.0 0.00 0.44 0.00 82 1017.0
20260905231544 56 265 8.0 13.0 0.00 0.44 0.00 81 1016.9
20260905230056 56 287 5.0 10.0 0.00 0.44 0.00 82 1016.7
20260905224535 55 276 5.0 10.0 0.00 0.45 0.00 81 1016.4
20260905223034 55 297 3.0 11.0 0.00 0.45 0.00 81 1016.2
20260905221534 55 299 5.0 13.0 0.00 0.45 0.00 81 1016.1
20260905220027 55 273 4.0 10.0 0.00 0.45 0.00 82 1015.8
20260905214528 55 253 3.0 13.0 0.00 0.46 0.45 82 1015.7
20260905213024 55 325 4.0 9.0 0.00 0.46 0.45 83 1015.6
20260905211530 56 305 4.0 12.0 0.00 0.46 0.45 82 1015.3
20260905210020 56 338 6.0 13.0 0.00 0.46 0.45 82 1015.0
20260905204519 56 277 7.0 14.0 0.00 0.54 0.45 81 1014.8
20260905203017 56 336 6.0 11.0 0.00 0.54 0.45 81 1014.5
20260905201515 56 267 7.0 17.0 0.00 0.54 0.45 81 1014.3
20260905200015 56 293 8.0 23.0 0.00 0.54 0.45 80 1014.1
20260905194512 56 298 8.0 18.0 0.00 0.54 0.45 81 1013.9
20260905193010 56 273 10.0 15.0 0.00 0.54 0.45 82 1013.9
20260905191508 56 283 9.0 18.0 0.00 0.54 0.45 81 1013.7
20260905190007 56 306 10.0 18.0 0.00 0.54 0.45 81 1013.4
20260905184513 56 319 9.0 23.0 0.00 0.55 0.45 82 1013.3
20260905183004 56 281 11.0 20.0 0.00 0.55 0.45 84 1013.0
20260905181600 56 296 12.0 17.0 0.00 0.55 0.45 83 1012.7
20260905180059 56 271 9.0 17.0 0.00 0.55 0.45 83 1012.5
20260905174603 57 274 7.0 23.0 0.00 0.56 0.45 83 1012.2
20260905173055 57 270 11.0 20.0 0.00 0.56 0.45 82 1012.0
20260905171554 57 290 9.0 24.0 0.00 0.56 0.45 83 1011.6
20260905170050 57 296 14.0 25.0 0.01 0.56 0.45 84 1011.3
20260905164547 57 279 11.0 22.0 0.01 0.59 0.45 83 1011.0
20260905163045 56 300 11.0 20.0 0.04 0.59 0.45 87 1010.7
20260905161542 55 286 12.0 21.0 0.05 0.59 0.45 91 1010.4
20260905160041 55 281 11.0 22.0 0.04 0.57 0.44 91 1010.1
20260905154549 55 259 10.0 19.0 0.03 0.92 0.43 90 1009.8
20260905153035 57 291 12.0 23.0 0.01 0.90 0.41 90 1009.5
20260905151534 56 286 14.0 23.0 0.00 0.89 0.40 88 1009.2
20260905150035 57 310 11.0 19.0 0.00 0.89 0.40 88 1008.7
20260905144527 57 293 11.0 19.0 0.00 0.89 0.40 89 1008.3
20260905143025 56 294 14.0 21.0 0.03 0.89 0.40 89 1007.9
20260905141523 57 296 14.0 22.0 0.04 0.89 0.40 89 1007.6
20260905140021 57 315 11.0 19.0 0.04 0.89 0.40 90 1007.2
20260905134519 57 334 8.0 14.0 0.04 0.88 0.39 90 1006.9
20260905133017 56 296 10.0 18.0 0.04 0.86 0.37 90 1006.6
20260905131516 56 281 11.0 16.0 0.06 0.85 0.36 91 1006.3
20260905130011 57 281 9.0 17.0 0.06 0.85 0.36 90 1006.0
20260905124509 56 265 8.0 18.0 0.05 0.84 0.35 91 1005.7
20260905123007 57 271 10.0 18.0 0.03 0.82 0.33 89 1005.7
20260905121506 58 322 8.0 20.0 0.01 0.80 0.31 86 1005.6
20260905120012 58 265 11.0 20.0 0.01 0.80 0.31 86 1005.2
20260905114525 58 303 12.0 21.0 0.01 0.80 0.31 84 1005.0
20260905113111 58 271 11.0 17.0 0.00 0.80 0.30 85 1004.8
20260905111555 59 288 12.0 20.0 0.00 0.80 0.30 83 1004.5
20260905110053 58 288 10.0 15.0 0.00 0.80 0.30 83 1004.2
20260905104550 58 299 9.0 18.0 0.00 0.82 0.30 82 1004.0
20260905103048 59 299 10.0 18.0 0.00 0.82 0.30 81 1003.7
20260905101544 57 288 9.0 18.0 0.00 0.82 0.30 82 1003.3
20260905100041 58 254 10.0 19.0 0.00 0.82 0.30 83 1003.0
20260905094538 58 281 11.0 16.0 0.00 0.86 0.30 82 1002.8
20260905093046 58 296 13.0 20.0 0.00 0.86 0.30 82 1002.5
20260905091534 57 321 10.0 17.0 0.00 0.86 0.30 83 1002.4
20260905090034 57 272 10.0 16.0 0.00 0.86 0.30 85 1002.0
20260905084527 57 294 10.0 21.0 0.00 0.86 0.30 86 1001.6
20260905083025 57 292 13.0 20.0 0.00 0.86 0.30 86 1001.4
20260905081625 57 292 10.0 19.0 0.00 0.86 0.30 86 1001.1
20260905080021 57 316 11.0 19.0 0.01 0.86 0.30 85 1000.8
20260905074519 56 290 13.0 21.0 0.04 0.86 0.30 87 1000.4
20260905073016 56 269 12.0 21.0 0.09 0.86 0.30 88 1000.2
20260905071615 55 292 13.0 19.0 0.09 0.86 0.30 89 1000.0
20260905070013 54 313 13.0 21.0 0.13 0.85 0.28 88 999.8
20260905064510 55 275 13.0 25.0 0.09 0.82 0.26 88 999.8
20260905063008 55 273 11.0 21.0 0.05 0.77 0.21 88 999.3
20260905061506 55 301 13.0 20.0 0.05 0.76 0.20 88 999.1